Showing default

METEOR 1-11, 5917

Orbit data source: Space-Track

METEOR 1-11, 5917 is a Commonwealth of Independent States-origin payload satellite in LEO that was launched on Thu, 30 Mar 1972 UTC via a VOSTOK 8A92M launch vehicle from the Plesetsk Missile And Space Complex (PKMTR). Payload-class satellites include a variety of spacecraft equipped with specific instruments for various scientific and technological missions. These include communications satellites like Starlink; space stations such as the ISS; scientific satellites like the Hubble; Earth observation satellites from companies like Planet Labs, Umbra, and HawkEye 360; GPS; miniature CubeSats for education and research; and military/defense satellites.

Loading next visibility...
Identifier
5917, 1972-022A
Orbit
LEO
Country
Flag of CISCIS
Related business
Manufacturer
VNIIEM
Mission
Spacecraft
Bus & Motor
METEOR, Unknown motor
Mass
1,280 kg wet, 1,280 kg dry
Launch date (UTC)
1972-03-30 (54 years ago)
Launch vehicle
VOSTOK 8A92M
Launch site
Plesetsk Missile And Space Complex (PKMTR)
Object type
Payload
Rocket body
Debris
Shape & HBR
Unknown
Radar Cross Section
Large (>1 m²)

Expand to show TLE details & history
Last TLE update: 12 hours ago

TLE from 12 hours ago
0 METEOR 1-11
1 05917U 72022A   25354.78072904  .00000010  00000-0 -16422-5 0  9993
2 05917  81.2265  98.9552 0045294 114.1163 246.4755 14.09221925759310
Epoch: 2025-12-20T18:44Z
TLE epoch observation values (Epoch: 2025-12-20T18:44:14.989Z)
Latitude
0.00005°
Longitude
88.29014°
Altitude
878.15 km
Speed
7.406 km/s
True Right ascension
06h 35m 49s
True Declination
0° 00' 00"
Sunlit
Object was in full shadow at epoch
Visualization orbit readout
Latitude
Unknown
Longitude
Unknown
Altitude
Unknown
Speed
Unknown
Apparent Right ascension
Unknown
Apparent Declination
Unknown
Sunlit
N/A
Visualization observer readout
Local Sidereal Time
05:25:04
Azimuth
Unknown
Elevation
Unknown
Doppler factor
Unknown
Orbital elements
Apogee altitude
891.992 km
Perigee altitude
826.431 km
Semi-major axis
7,237.348 km
Eccentricity
0.00453
Inclination
81.2265°
RAAN
98.9552°
Arg. of periapsis
114.1163°
True anomaly
246.00068°
Mean anomaly
246.4755°
Eccentric anomaly
246.23798°
Mean motion
3.52512 °/min
Orbital period
102.12 mins
BSTAR
-0.0000016422
Loading maneuver chart data...
Computing Atmospheric mass density...
Loading historical data...
Loading historical data...
Loading historical data...
Loading historical data...
Loading historical data...
Loading historical data...
Loading historical data...

Documentation

Showing up to 5 results
|